• In Romania
  • List of Countries
  • For 7 days
  • Water Temperature
  • Satellite Maps
  • Weather Map
  • Weather Widgets
  • user-avatar
    Login

    Hourly Weather Niegardow

    Today, 21 October, Sunday

    Time Temperature Precipitation Wind Pressure Humidity
    00:00 +7°C° 0.1 mm 4 mps 748 mmHg 80%
    01:00 +7°C° 0.1 mm 3 mps 748 mmHg 83%
    02:00 +7°C° 0.1 mm 3 mps 748 mmHg 86%
    03:00 +7°C° 0.1 mm 3 mps 748 mmHg 88%
    04:00 +7°C° 0.1 mm 3 mps 747 mmHg 90%
    05:00 +7°C° 0.1 mm 3 mps 748 mmHg 90%
    06:00 +7°C° 0.1 mm 3 mps 748 mmHg 89%
    07:00 +7°C° 0.1 mm 4 mps 748 mmHg 88%
    08:00 +7°C° 0.2 mm 4 mps 749 mmHg 86%
    09:00 +7°C° 0.2 mm 4 mps 749 mmHg 83%
    10:00 +8°C° 0.2 mm 4 mps 749 mmHg 81%
    11:00 +10°C° 0 mm 4 mps 749 mmHg 75%
    12:00 +11°C° 0 mm 3 mps 749 mmHg 69%
    13:00 +12°C° 0 mm 3 mps 749 mmHg 63%
    14:00 +11°C° 0 mm 3 mps 749 mmHg 64%
    15:00 +12°C° 0 mm 2 mps 749 mmHg 65%
    16:00 +12°C° 0 mm 2 mps 749 mmHg 67%
    17:00 +10°C° 0 mm 2 mps 750 mmHg 71%
    18:00 +9°C° 0 mm 2 mps 750 mmHg 75%
    19:00 +8°C° 0 mm 2 mps 750 mmHg 79%
    20:00 +8°C° 0 mm 1 mps 750 mmHg 81%
    21:00 +8°C° 0 mm 1 mps 750 mmHg 83%
    22:00 +7°C° 0 mm 1 mps 750 mmHg 85%
    23:00 +7°C° 0 mm 1 mps 750 mmHg 86%

    Tomorrow, 22 October, Monday

    Time Temperature Precipitation Wind Pressure Humidity
    00:00 +6°C° 0 mm 0 mps 750 mmHg 86%
    01:00 +5°C° 0 mm 0 mps 750 mmHg 87%
    02:00 +5°C° 0 mm 0 mps 750 mmHg 87%
    03:00 +5°C° 0 mm 0 mps 750 mmHg 87%
    04:00 +5°C° 0 mm 0 mps 749 mmHg 88%
    05:00 +5°C° 0 mm 0 mps 749 mmHg 87%
    06:00 +5°C° 0 mm 0 mps 750 mmHg 86%
    07:00 +5°C° 0 mm 0 mps 750 mmHg 86%
    08:00 +7°C° 0 mm 0 mps 750 mmHg 77%
    09:00 +9°C° 0 mm 0 mps 749 mmHg 68%
    10:00 +11°C° 0 mm 0 mps 749 mmHg 60%
    11:00 +13°C° 0 mm 1 mps 749 mmHg 56%
    12:00 +14°C° 0 mm 1 mps 748 mmHg 53%
    13:00 +14°C° 0 mm 1 mps 748 mmHg 50%
    14:00 +14°C° 0 mm 1 mps 748 mmHg 52%
    15:00 +13°C° 0 mm 1 mps 747 mmHg 55%
    16:00 +13°C° 0 mm 1 mps 747 mmHg 58%
    17:00 +11°C° 0 mm 1 mps 747 mmHg 62%
    18:00 +10°C° 0 mm 1 mps 747 mmHg 66%
    19:00 +8°C° 0 mm 2 mps 747 mmHg 71%
    20:00 +8°C° 0 mm 2 mps 747 mmHg 72%
    21:00 +8°C° 0 mm 2 mps 748 mmHg 73%
    22:00 +8°C° 0 mm 3 mps 748 mmHg 75%
    23:00 +8°C° 0.4 mm 3 mps 748 mmHg 78%

    Day after tomorrow, 23 October, Tuesday

    Time Temperature Precipitation Wind Pressure Humidity
    00:00 +7°C° 0.4 mm 4 mps 748 mmHg 81%
    01:00 +7°C° 0.4 mm 4 mps 748 mmHg 84%
    02:00 +7°C° 0.2 mm 4 mps 747 mmHg 84%
    03:00 +6°C° 0.2 mm 4 mps 747 mmHg 84%
    04:00 +6°C° 0.2 mm 4 mps 747 mmHg 84%
    05:00 +5°C° 0 mm 4 mps 747 mmHg 86%
    06:00 +4°C° 0 mm 3 mps 747 mmHg 88%
    07:00 +4°C° 0 mm 3 mps 747 mmHg 90%
    08:00 +5°C° 0 mm 4 mps 747 mmHg 82%
    09:00 +6°C° 0 mm 4 mps 746 mmHg 75%
    10:00 +7°C° 0 mm 5 mps 746 mmHg 67%
    11:00 +8°C° 0 mm 5 mps 745 mmHg 64%
    12:00 +8°C° 0 mm 6 mps 744 mmHg 60%
    13:00 +9°C° 0 mm 6 mps 743 mmHg 57%
    14:00 +8°C° 0.2 mm 6 mps 742 mmHg 59%
    15:00 +8°C° 0.2 mm 6 mps 741 mmHg 61%
    16:00 +8°C° 0.2 mm 7 mps 740 mmHg 63%
    17:00 +6°C° 0.4 mm 7 mps 739 mmHg 66%
    18:00 +6°C° 0.4 mm 8 mps 737 mmHg 68%
    19:00 +6°C° 0.4 mm 9 mps 736 mmHg 70%
    20:00 +6°C° 0.5 mm 10 mps 735 mmHg 72%
    21:00 +7°C° 0.5 mm 10 mps 734 mmHg 74%
    22:00 +7°C° 0.5 mm 10 mps 733 mmHg 76%
    23:00 +7°C° 1.3 mm 10 mps 732 mmHg 77%

    24 October, Wednesday

    Time Temperature Precipitation Wind Pressure Humidity
    00:00 +8°C° 1.3 mm 10 mps 732 mmHg 78%
    01:00 +8°C° 1.3 mm 10 mps 731 mmHg 79%
    02:00 +7°C° 0.4 mm 10 mps 731 mmHg 76%
    03:00 +7°C° 0.4 mm 10 mps 731 mmHg 73%
    04:00 +6°C° 0.4 mm 10 mps 731 mmHg 71%
    05:00 +5°C° 0.3 mm 10 mps 732 mmHg 69%
    06:00 +5°C° 0.3 mm 10 mps 732 mmHg 66%
    07:00 +3°C° 0.3 mm 10 mps 733 mmHg 64%
    08:00 +3°C° 0.1 mm 10 mps 733 mmHg 59%
    09:00 +5°C° 0.1 mm 10 mps 734 mmHg 53%
    10:00 +5°C° 0.1 mm 10 mps 734 mmHg 48%
    11:00 +5°C° 0 mm 10 mps 734 mmHg 46%
    12:00 +5°C° 0 mm 10 mps 734 mmHg 44%
    13:00 +6°C° 0 mm 10 mps 735 mmHg 42%
    14:00 +5°C° 0 mm 9 mps 735 mmHg 43%
    15:00 +5°C° 0 mm 9 mps 735 mmHg 45%
    16:00 +5°C° 0 mm 8 mps 736 mmHg 46%
    17:00 +4°C° 0 mm 7 mps 736 mmHg 49%
    18:00 +4°C° 0 mm 7 mps 736 mmHg 51%
    19:00 +3°C° 0 mm 6 mps 737 mmHg 54%
    20:00 +3°C° 0 mm 6 mps 737 mmHg 56%
    21:00 +2°C° 0 mm 6 mps 737 mmHg 57%
    22:00 +2°C° 0 mm 6 mps 738 mmHg 59%
    23:00 +2°C° 0 mm 6 mps 738 mmHg 62%

    25 October, Thursday

    Time Temperature Precipitation Wind Pressure Humidity
    00:00 +2°C° 0 mm 6 mps 738 mmHg 65%
    01:00 +2°C° 0 mm 6 mps 738 mmHg 68%
    02:00 +1°C° 0 mm 6 mps 738 mmHg 70%
    03:00 +1°C° 0 mm 6 mps 739 mmHg 72%
    04:00 +1°C° 0 mm 6 mps 739 mmHg 75%
    05:00 +1°C° 0 mm 6 mps 739 mmHg 75%
    06:00 +2°C° 0 mm 5 mps 739 mmHg 76%
    07:00 +2°C° 0 mm 5 mps 739 mmHg 76%
    08:00 +3°C° 0.3 mm 5 mps 738 mmHg 77%
    09:00 +5°C° 0.3 mm 5 mps 738 mmHg 78%
    10:00 +5°C° 0.3 mm 5 mps 737 mmHg 79%
    11:00 +5°C° 0.6 mm 6 mps 737 mmHg 82%
    12:00 +7°C° 0.6 mm 6 mps 736 mmHg 84%
    13:00 +8°C° 0.6 mm 7 mps 736 mmHg 87%
    14:00 +8°C° 0.4 mm 7 mps 736 mmHg 86%
    15:00 +9°C° 0.4 mm 7 mps 736 mmHg 85%
    16:00 +9°C° 0.4 mm 8 mps 736 mmHg 83%
    17:00 +9°C° 0.1 mm 7 mps 736 mmHg 84%
    18:00 +8°C° 0.1 mm 7 mps 737 mmHg 84%
    19:00 +8°C° 0.1 mm 7 mps 737 mmHg 85%
    20:00 +8°C° 0.1 mm 7 mps 737 mmHg 85%
    21:00 +8°C° 0.1 mm 7 mps 737 mmHg 85%
    22:00 +8°C° 0.1 mm 7 mps 738 mmHg 85%
    23:00 +8°C° 0.1 mm 6 mps 738 mmHg 86%

    26 October, Friday

    Time Temperature Precipitation Wind Pressure Humidity
    00:00 +8°C° 0.1 mm 6 mps 738 mmHg 87%
    01:00 +8°C° 0.1 mm 6 mps 738 mmHg 87%
    02:00 +8°C° 0.1 mm 5 mps 738 mmHg 87%
    03:00 +8°C° 0.1 mm 5 mps 738 mmHg 87%
    04:00 +8°C° 0.1 mm 5 mps 738 mmHg 87%
    05:00 +8°C° 0 mm 5 mps 738 mmHg 87%
    06:00 +8°C° 0 mm 5 mps 738 mmHg 86%
    07:00 +8°C° 0 mm 4 mps 738 mmHg 86%
    08:00 +8°C° 0 mm 5 mps 738 mmHg 81%
    09:00 +9°C° 0 mm 5 mps 738 mmHg 77%
    10:00 +10°C° 0 mm 5 mps 738 mmHg 72%
    11:00 +12°C° 0 mm 5 mps 737 mmHg 69%
    12:00 +12°C° 0 mm 5 mps 737 mmHg 65%
    13:00 +13°C° 0 mm 5 mps 737 mmHg 62%
    14:00 +12°C° 0 mm 5 mps 736 mmHg 65%
    15:00 +12°C° 0 mm 4 mps 736 mmHg 68%
    16:00 +11°C° 0 mm 3 mps 735 mmHg 71%
    17:00 +10°C° 0 mm 3 mps 735 mmHg 75%
    18:00 +10°C° 0 mm 3 mps 735 mmHg 78%
    19:00 +9°C° 0 mm 2 mps 735 mmHg 82%
    20:00 +8°C° 0 mm 2 mps 734 mmHg 83%
    21:00 +8°C° 0 mm 2 mps 734 mmHg 84%
    22:00 +8°C° 0 mm 2 mps 734 mmHg 85%
    23:00 +8°C° 0 mm 2 mps 733 mmHg 86%
    Show more